Time,TemperatureF,DewpointF,PressureIn,WindDirection,WindDirectionDegrees,WindSpeedMPH,WindSpeedGustMPH,Humidity,HourlyPrecipIn,Conditions,Clouds,dailyrainin,SoftwareType,DateUTC
2014-01-13 00:00:00,44.3,38.5,30.15,West,270,0.0,-999.0,80,0.00,,,0.00,Wunderground v.1.15,2014-01-13 05:00:00,
2014-01-13 00:05:00,44.3,38.5,30.15,West,270,0.0,-999.0,80,0.00,,,0.00,Wunderground v.1.15,2014-01-13 05:05:00,
2014-01-13 00:10:00,44.3,38.5,30.15,West,270,0.0,-999.0,80,0.00,,,0.00,Wunderground v.1.15,2014-01-13 05:10:00,
2014-01-13 00:15:00,44.3,38.5,30.15,West,270,0.0,-999.0,80,0.00,,,0.00,Wunderground v.1.15,2014-01-13 05:15:00,
2014-01-13 00:20:00,44.3,38.5,30.15,West,270,0.0,-999.0,80,0.00,,,0.00,Wunderground v.1.15,2014-01-13 05:20:00,
2014-01-13 00:25:00,44.3,38.5,30.15,West,270,0.0,-999.0,80,0.00,,,0.00,Wunderground v.1.15,2014-01-13 05:25:00,
2014-01-13 00:30:00,44.3,38.5,30.15,West,270,0.0,-999.0,80,0.00,,,0.00,Wunderground v.1.15,2014-01-13 05:30:00,
2014-01-13 00:35:00,44.3,38.5,30.15,West,270,0.0,-999.0,80,0.00,,,0.00,Wunderground v.1.15,2014-01-13 05:35:00,
2014-01-13 00:40:00,44.3,38.5,30.15,West,270,0.0,-999.0,80,0.00,,,0.00,Wunderground v.1.15,2014-01-13 05:40:00,
2014-01-13 00:45:00,44.0,38.2,30.14,SW,225,0.0,-999.0,80,0.00,,,0.00,Wunderground v.1.15,2014-01-13 05:45:00,
2014-01-13 00:50:00,44.0,38.2,30.14,SW,225,0.0,-999.0,80,0.00,,,0.00,Wunderground v.1.15,2014-01-13 05:50:00,
2014-01-13 00:55:00,44.0,38.2,30.14,SW,225,0.0,-999.0,80,0.00,,,0.00,Wunderground v.1.15,2014-01-13 05:55:00,
2014-01-13 01:00:00,44.0,38.2,30.14,SW,225,0.0,-999.0,80,0.00,,,0.00,Wunderground v.1.15,2014-01-13 06:00:00,
2014-01-13 01:05:00,44.0,38.2,30.14,SW,225,0.0,-999.0,80,0.00,,,0.00,Wunderground v.1.15,2014-01-13 06:05:00,
2014-01-13 01:10:00,44.0,38.2,30.14,SW,225,0.0,-999.0,80,0.00,,,0.00,Wunderground v.1.15,2014-01-13 06:10:00,
2014-01-13 01:15:00,44.1,38.0,30.14,SW,225,0.0,-999.0,79,0.00,,,0.00,Wunderground v.1.15,2014-01-13 06:15:00,
2014-01-13 01:20:00,44.1,38.0,30.14,SW,225,0.0,-999.0,79,0.00,,,0.00,Wunderground v.1.15,2014-01-13 06:20:00,
2014-01-13 01:25:00,44.1,38.0,30.14,SW,225,0.0,-999.0,79,0.00,,,0.00,Wunderground v.1.15,2014-01-13 06:25:00,
2014-01-13 01:30:00,44.1,38.0,30.14,SW,225,0.0,-999.0,79,0.00,,,0.00,Wunderground v.1.15,2014-01-13 06:30:00,
2014-01-13 01:35:00,44.1,38.0,30.14,SW,225,0.0,-999.0,79,0.00,,,0.00,Wunderground v.1.15,2014-01-13 06:35:00,
2014-01-13 01:40:00,44.1,38.0,30.14,SW,225,0.0,-999.0,79,0.00,,,0.00,Wunderground v.1.15,2014-01-13 06:40:00,
2014-01-13 01:45:00,44.2,38.1,30.15,WSW,248,0.0,-999.0,79,0.00,,,0.00,Wunderground v.1.15,2014-01-13 06:45:00,
2014-01-13 01:50:00,44.2,38.1,30.15,WSW,248,0.0,-999.0,79,0.00,,,0.00,Wunderground v.1.15,2014-01-13 06:50:00,
2014-01-13 01:55:00,44.2,38.1,30.15,WSW,248,0.0,-999.0,79,0.00,,,0.00,Wunderground v.1.15,2014-01-13 06:55:00,
2014-01-13 02:00:00,44.2,38.1,30.15,WSW,248,0.0,-999.0,79,0.00,,,0.00,Wunderground v.1.15,2014-01-13 07:00:00,
2014-01-13 02:05:00,44.2,38.1,30.15,WSW,248,0.0,-999.0,79,0.00,,,0.00,Wunderground v.1.15,2014-01-13 07:05:00,
2014-01-13 02:10:00,44.2,38.1,30.15,WSW,248,0.0,-999.0,79,0.00,,,0.00,Wunderground v.1.15,2014-01-13 07:10:00,
2014-01-13 02:15:00,43.2,37.1,30.16,SW,225,0.0,-999.0,79,0.00,,,0.00,Wunderground v.1.15,2014-01-13 07:15:00,
2014-01-13 02:20:00,43.2,37.1,30.16,SW,225,0.0,-999.0,79,0.00,,,0.00,Wunderground v.1.15,2014-01-13 07:20:00,
2014-01-13 02:25:00,43.2,37.1,30.16,SW,225,0.0,-999.0,79,0.00,,,0.00,Wunderground v.1.15,2014-01-13 07:25:00,
2014-01-13 02:30:00,43.2,37.1,30.16,SW,225,0.0,-999.0,79,0.00,,,0.00,Wunderground v.1.15,2014-01-13 07:30:00,
2014-01-13 02:35:00,43.2,37.1,30.16,SW,225,0.0,-999.0,79,0.00,,,0.00,Wunderground v.1.15,2014-01-13 07:35:00,
2014-01-13 02:40:00,43.2,37.1,30.16,SW,225,0.0,-999.0,79,0.00,,,0.00,Wunderground v.1.15,2014-01-13 07:40:00,
2014-01-13 02:45:00,42.4,36.7,30.15,WSW,248,1.0,-999.0,80,0.00,,,0.00,Wunderground v.1.15,2014-01-13 07:45:00,
2014-01-13 02:50:00,42.4,36.7,30.15,WSW,248,1.0,-999.0,80,0.00,,,0.00,Wunderground v.1.15,2014-01-13 07:50:00,
2014-01-13 02:55:00,42.4,36.7,30.15,WSW,248,1.0,-999.0,80,0.00,,,0.00,Wunderground v.1.15,2014-01-13 07:55:00,
2014-01-13 03:00:00,42.4,36.7,30.15,WSW,248,1.0,-999.0,80,0.00,,,0.00,Wunderground v.1.15,2014-01-13 08:00:00,
2014-01-13 03:05:00,42.4,36.7,30.15,WSW,248,1.0,-999.0,80,0.00,,,0.00,Wunderground v.1.15,2014-01-13 08:05:00,
2014-01-13 03:10:00,42.4,36.7,30.15,WSW,248,1.0,-999.0,80,0.00,,,0.00,Wunderground v.1.15,2014-01-13 08:10:00,
2014-01-13 03:15:00,41.6,36.5,30.15,West,270,0.0,-999.0,82,0.00,,,0.00,Wunderground v.1.15,2014-01-13 08:15:00,
2014-01-13 03:20:00,41.6,36.5,30.15,West,270,0.0,-999.0,82,0.00,,,0.00,Wunderground v.1.15,2014-01-13 08:20:00,
2014-01-13 03:25:00,41.6,36.5,30.15,West,270,0.0,-999.0,82,0.00,,,0.00,Wunderground v.1.15,2014-01-13 08:25:00,
2014-01-13 03:30:00,41.6,36.5,30.15,West,270,0.0,-999.0,82,0.00,,,0.00,Wunderground v.1.15,2014-01-13 08:30:00,
2014-01-13 03:35:00,41.6,36.5,30.15,West,270,0.0,-999.0,82,0.00,,,0.00,Wunderground v.1.15,2014-01-13 08:35:00,
2014-01-13 03:40:00,41.6,36.5,30.15,West,270,0.0,-999.0,82,0.00,,,0.00,Wunderground v.1.15,2014-01-13 08:40:00,
2014-01-13 03:45:00,41.6,36.8,30.15,West,270,1.0,-999.0,83,0.00,,,0.00,Wunderground v.1.15,2014-01-13 08:45:00,
2014-01-13 03:50:00,41.6,36.8,30.15,West,270,1.0,-999.0,83,0.00,,,0.00,Wunderground v.1.15,2014-01-13 08:50:00,
2014-01-13 03:55:00,41.6,36.8,30.15,West,270,1.0,-999.0,83,0.00,,,0.00,Wunderground v.1.15,2014-01-13 08:55:00,
2014-01-13 04:00:00,41.6,36.8,30.15,West,270,1.0,-999.0,83,0.00,,,0.00,Wunderground v.1.15,2014-01-13 09:00:00,
2014-01-13 04:05:00,41.6,36.8,30.15,West,270,1.0,-999.0,83,0.00,,,0.00,Wunderground v.1.15,2014-01-13 09:05:00,
2014-01-13 04:10:00,41.6,36.8,30.15,West,270,1.0,-999.0,83,0.00,,,0.00,Wunderground v.1.15,2014-01-13 09:10:00,
2014-01-13 04:15:00,40.5,35.7,30.14,West,270,0.0,-999.0,83,0.00,,,0.00,Wunderground v.1.15,2014-01-13 09:15:00,
2014-01-13 04:20:00,40.5,35.7,30.14,West,270,0.0,-999.0,83,0.00,,,0.00,Wunderground v.1.15,2014-01-13 09:20:00,
2014-01-13 04:25:00,40.5,35.7,30.14,West,270,0.0,-999.0,83,0.00,,,0.00,Wunderground v.1.15,2014-01-13 09:25:00,
2014-01-13 04:30:00,40.5,35.7,30.14,West,270,0.0,-999.0,83,0.00,,,0.00,Wunderground v.1.15,2014-01-13 09:30:00,
2014-01-13 04:35:00,40.5,35.7,30.14,West,270,0.0,-999.0,83,0.00,,,0.00,Wunderground v.1.15,2014-01-13 09:35:00,
2014-01-13 04:40:00,40.5,35.7,30.14,West,270,0.0,-999.0,83,0.00,,,0.00,Wunderground v.1.15,2014-01-13 09:40:00,
2014-01-13 04:45:00,41.2,37.0,30.14,NW,315,0.0,-999.0,85,0.00,,,0.00,Wunderground v.1.15,2014-01-13 09:45:00,
2014-01-13 04:50:00,41.2,37.0,30.14,NW,315,0.0,-999.0,85,0.00,,,0.00,Wunderground v.1.15,2014-01-13 09:50:00,
2014-01-13 04:55:00,41.2,37.0,30.14,NW,315,0.0,-999.0,85,0.00,,,0.00,Wunderground v.1.15,2014-01-13 09:55:00,
2014-01-13 05:00:00,41.2,37.0,30.14,NW,315,0.0,-999.0,85,0.00,,,0.00,Wunderground v.1.15,2014-01-13 10:00:00,
2014-01-13 05:05:00,41.2,37.0,30.14,NW,315,0.0,-999.0,85,0.00,,,0.00,Wunderground v.1.15,2014-01-13 10:05:00,
2014-01-13 05:10:00,41.2,37.0,30.14,NW,315,0.0,-999.0,85,0.00,,,0.00,Wunderground v.1.15,2014-01-13 10:10:00,
2014-01-13 05:15:00,41.3,37.1,30.14,South,180,0.0,-999.0,85,0.00,,,0.00,Wunderground v.1.15,2014-01-13 10:15:00,
2014-01-13 05:20:00,41.3,37.1,30.14,South,180,0.0,-999.0,85,0.00,,,0.00,Wunderground v.1.15,2014-01-13 10:20:00,
2014-01-13 05:25:00,41.3,37.1,30.14,South,180,0.0,-999.0,85,0.00,,,0.00,Wunderground v.1.15,2014-01-13 10:25:00,
2014-01-13 05:30:00,41.3,37.1,30.14,South,180,0.0,-999.0,85,0.00,,,0.00,Wunderground v.1.15,2014-01-13 10:30:00,
2014-01-13 05:35:00,41.3,37.1,30.14,South,180,0.0,-999.0,85,0.00,,,0.00,Wunderground v.1.15,2014-01-13 10:35:00,
2014-01-13 05:40:00,41.3,37.1,30.14,South,180,0.0,-999.0,85,0.00,,,0.00,Wunderground v.1.15,2014-01-13 10:40:00,
2014-01-13 05:45:00,41.0,38.0,30.14,WSW,248,1.0,-999.0,89,0.00,,,0.00,Wunderground v.1.15,2014-01-13 10:45:00,
2014-01-13 05:50:00,41.0,38.0,30.14,WSW,248,1.0,-999.0,89,0.00,,,0.00,Wunderground v.1.15,2014-01-13 10:50:00,
2014-01-13 05:55:00,41.0,38.0,30.14,WSW,248,1.0,-999.0,89,0.00,,,0.00,Wunderground v.1.15,2014-01-13 10:55:00,
2014-01-13 06:00:00,41.0,38.0,30.14,WSW,248,1.0,-999.0,89,0.00,,,0.00,Wunderground v.1.15,2014-01-13 11:00:00,
2014-01-13 06:05:00,41.0,38.0,30.14,WSW,248,1.0,-999.0,89,0.00,,,0.00,Wunderground v.1.15,2014-01-13 11:05:00,
2014-01-13 06:10:00,41.0,38.0,30.14,WSW,248,1.0,-999.0,89,0.00,,,0.00,Wunderground v.1.15,2014-01-13 11:10:00,
2014-01-13 06:15:00,41.4,37.2,30.14,SW,225,1.0,-999.0,85,0.00,,,0.00,Wunderground v.1.15,2014-01-13 11:15:00,
2014-01-13 06:20:00,41.4,37.2,30.14,SW,225,1.0,-999.0,85,0.00,,,0.00,Wunderground v.1.15,2014-01-13 11:20:00,
2014-01-13 06:25:00,41.4,37.2,30.14,SW,225,1.0,-999.0,85,0.00,,,0.00,Wunderground v.1.15,2014-01-13 11:25:00,
2014-01-13 06:30:00,41.4,37.2,30.14,SW,225,1.0,-999.0,85,0.00,,,0.00,Wunderground v.1.15,2014-01-13 11:30:00,
2014-01-13 06:35:00,41.4,37.2,30.14,SW,225,1.0,-999.0,85,0.00,,,0.00,Wunderground v.1.15,2014-01-13 11:35:00,
2014-01-13 06:40:00,41.4,37.2,30.14,SW,225,1.0,-999.0,85,0.00,,,0.00,Wunderground v.1.15,2014-01-13 11:40:00,
2014-01-13 06:45:00,41.5,37.0,30.13,South,180,1.0,-999.0,84,0.00,,,0.00,Wunderground v.1.15,2014-01-13 11:45:00,
2014-01-13 06:50:00,41.5,37.0,30.13,South,180,1.0,-999.0,84,0.00,,,0.00,Wunderground v.1.15,2014-01-13 11:50:00,
2014-01-13 06:55:00,41.5,37.0,30.13,South,180,1.0,-999.0,84,0.00,,,0.00,Wunderground v.1.15,2014-01-13 11:55:00,
2014-01-13 07:00:00,41.5,37.0,30.13,South,180,1.0,-999.0,84,0.00,,,0.00,Wunderground v.1.15,2014-01-13 12:00:00,
2014-01-13 07:05:00,41.5,37.0,30.13,South,180,1.0,-999.0,84,0.00,,,0.00,Wunderground v.1.15,2014-01-13 12:05:00,
2014-01-13 07:10:00,41.5,37.0,30.13,South,180,1.0,-999.0,84,0.00,,,0.00,Wunderground v.1.15,2014-01-13 12:10:00,
2014-01-13 07:15:00,41.5,37.3,30.13,South,180,1.0,-999.0,85,0.00,,,0.00,Wunderground v.1.15,2014-01-13 12:15:00,
2014-01-13 07:20:00,41.5,37.3,30.13,South,180,1.0,-999.0,85,0.00,,,0.00,Wunderground v.1.15,2014-01-13 12:20:00,
2014-01-13 07:25:00,41.5,37.3,30.13,South,180,1.0,-999.0,85,0.00,,,0.00,Wunderground v.1.15,2014-01-13 12:25:00,
2014-01-13 07:30:00,41.5,37.3,30.13,South,180,1.0,-999.0,85,0.00,,,0.00,Wunderground v.1.15,2014-01-13 12:30:00,
2014-01-13 07:35:00,41.5,37.3,30.13,South,180,1.0,-999.0,85,0.00,,,0.00,Wunderground v.1.15,2014-01-13 12:35:00,
2014-01-13 07:40:00,41.5,37.3,30.13,South,180,1.0,-999.0,85,0.00,,,0.00,Wunderground v.1.15,2014-01-13 12:40:00,
2014-01-13 07:45:00,41.3,37.1,30.13,South,180,0.0,-999.0,85,0.00,,,0.00,Wunderground v.1.15,2014-01-13 12:45:00,
2014-01-13 07:50:00,41.3,37.1,30.13,South,180,0.0,-999.0,85,0.00,,,0.00,Wunderground v.1.15,2014-01-13 12:50:00,
2014-01-13 07:55:00,41.3,37.1,30.13,South,180,0.0,-999.0,85,0.00,,,0.00,Wunderground v.1.15,2014-01-13 12:55:00,
2014-01-13 08:00:00,41.3,37.1,30.13,South,180,0.0,-999.0,85,0.00,,,0.00,Wunderground v.1.15,2014-01-13 13:00:00,
2014-01-13 08:05:00,41.3,37.1,30.13,South,180,0.0,-999.0,85,0.00,,,0.00,Wunderground v.1.15,2014-01-13 13:05:00,
2014-01-13 08:10:00,41.3,37.1,30.13,South,180,0.0,-999.0,85,0.00,,,0.00,Wunderground v.1.15,2014-01-13 13:10:00,
2014-01-13 08:15:00,42.0,37.2,30.11,SSW,203,0.0,-999.0,83,0.00,,,0.00,Wunderground v.1.15,2014-01-13 13:15:00,
2014-01-13 08:20:00,42.0,37.2,30.11,SSW,203,0.0,-999.0,83,0.00,,,0.00,Wunderground v.1.15,2014-01-13 13:20:00,
2014-01-13 08:25:00,42.0,37.2,30.11,SSW,203,0.0,-999.0,83,0.00,,,0.00,Wunderground v.1.15,2014-01-13 13:25:00,
2014-01-13 08:30:00,42.0,37.2,30.11,SSW,203,0.0,-999.0,83,0.00,,,0.00,Wunderground v.1.15,2014-01-13 13:30:00,
2014-01-13 08:50:00,42.9,37.8,30.11,South,183,1.0,2.0,82,0.00,,,0.00,Wunderground v.1.15,2014-01-13 13:50:00,
2014-01-13 08:55:00,43.0,37.6,30.12,South,180,1.0,2.0,81,0.00,,,0.00,Wunderground v.1.15,2014-01-13 13:55:00,
2014-01-13 09:00:00,43.1,38.0,30.13,South,177,1.0,4.0,82,0.00,,,0.00,Wunderground v.1.15,2014-01-13 14:00:00,
2014-01-13 09:05:00,43.3,37.9,30.13,South,177,1.0,4.0,81,0.00,,,0.00,Wunderground v.1.15,2014-01-13 14:05:00,
2014-01-13 09:10:00,43.6,38.2,30.13,South,177,1.0,1.0,81,0.00,,,0.00,Wunderground v.1.15,2014-01-13 14:10:00,
2014-01-13 09:15:00,43.9,38.1,30.13,SSE,166,1.0,4.0,80,0.00,,,0.00,Wunderground v.1.15,2014-01-13 14:15:00,
2014-01-13 09:20:00,44.3,38.2,30.14,South,184,2.0,2.0,79,0.00,,,0.00,Wunderground v.1.15,2014-01-13 14:20:00,
2014-01-13 09:25:00,44.9,38.8,30.14,SSW,197,2.0,2.0,79,0.00,,,0.00,Wunderground v.1.15,2014-01-13 14:25:00,
2014-01-13 09:35:00,45.8,39.0,30.14,South,177,1.0,1.0,77,0.00,,,0.00,Wunderground v.1.15,2014-01-13 14:35:00,
2014-01-13 09:40:00,46.4,39.6,30.14,South,183,1.0,2.0,77,0.00,,,0.00,Wunderground v.1.15,2014-01-13 14:40:00,
2014-01-13 09:45:00,47.1,39.6,30.14,SSE,158,1.0,2.0,75,0.00,,,0.00,Wunderground v.1.15,2014-01-13 14:45:00,
2014-01-13 09:50:00,47.6,39.7,30.14,SW,221,1.0,1.0,74,0.00,,,0.00,Wunderground v.1.15,2014-01-13 14:50:00,
2014-01-13 09:55:00,47.8,39.6,30.13,South,173,1.0,2.0,73,0.00,,,0.00,Wunderground v.1.15,2014-01-13 14:55:00,
2014-01-13 10:00:00,48.2,39.9,30.13,SW,226,2.0,2.0,73,0.00,,,0.00,Wunderground v.1.15,2014-01-13 15:00:00,
2014-01-13 10:05:00,48.7,40.4,30.13,SSW,194,1.0,6.0,73,0.00,,,0.00,Wunderground v.1.15,2014-01-13 15:05:00,
2014-01-13 10:10:00,49.1,40.1,30.13,South,171,1.0,6.0,71,0.00,,,0.00,Wunderground v.1.15,2014-01-13 15:10:00,
2014-01-13 10:15:00,49.6,40.6,30.13,SW,223,1.0,6.0,71,0.00,,,0.00,Wunderground v.1.15,2014-01-13 15:15:00,
2014-01-13 10:20:00,49.7,40.3,30.13,SSE,153,1.0,1.0,70,0.00,,,0.00,Wunderground v.1.15,2014-01-13 15:20:00,
2014-01-13 10:25:00,50.1,40.3,30.13,South,185,1.0,2.0,69,0.00,,,0.00,Wunderground v.1.15,2014-01-13 15:25:00,
2014-01-13 10:30:00,50.3,39.8,30.14,WSW,247,2.0,6.0,67,0.00,,,0.00,Wunderground v.1.15,2014-01-13 15:30:00,
2014-01-13 10:35:00,50.3,40.5,30.13,South,175,3.0,6.0,69,0.00,,,0.00,Wunderground v.1.15,2014-01-13 15:35:00,
2014-01-13 10:40:00,50.7,40.5,30.13,SSE,159,2.0,2.0,68,0.00,,,0.00,Wunderground v.1.15,2014-01-13 15:40:00,
2014-01-13 10:45:00,50.9,40.7,30.13,South,169,2.0,4.0,68,0.00,,,0.00,Wunderground v.1.15,2014-01-13 15:45:00,
2014-01-13 10:50:00,51.2,40.6,30.13,South,174,2.0,2.0,67,0.00,,,0.00,Wunderground v.1.15,2014-01-13 15:50:00,
2014-01-13 10:55:00,52.0,41.8,30.13,South,173,1.0,6.0,68,0.00,,,0.00,Wunderground v.1.15,2014-01-13 15:55:00,
2014-01-13 11:00:00,52.6,41.6,30.12,South,169,1.0,6.0,66,0.00,,,0.00,Wunderground v.1.15,2014-01-13 16:00:00,
2014-01-13 11:05:00,53.0,41.5,30.12,SW,227,1.0,6.0,65,0.00,,,0.00,Wunderground v.1.15,2014-01-13 16:05:00,
2014-01-13 11:10:00,53.5,41.2,30.12,WSW,237,1.0,6.0,63,0.00,,,0.00,Wunderground v.1.15,2014-01-13 16:10:00,
2014-01-13 11:15:00,53.7,41.8,30.12,South,186,1.0,6.0,64,0.00,,,0.00,Wunderground v.1.15,2014-01-13 16:15:00,
2014-01-13 11:20:00,54.4,42.1,30.10,South,180,1.0,-999.0,63,0.00,,,0.07,Wunderground v.1.15,2014-01-13 16:20:00,
2014-01-13 11:25:00,54.2,42.3,30.10,SSW,209,0.0,6.0,64,0.00,,,0.00,Wunderground v.1.15,2014-01-13 16:25:00,
2014-01-13 11:30:00,54.4,42.1,30.10,WSW,243,0.0,6.0,63,0.00,,,0.00,Wunderground v.1.15,2014-01-13 16:30:00,
2014-01-13 11:35:00,54.6,42.7,30.09,SW,216,1.0,6.0,64,0.00,,,0.00,Wunderground v.1.15,2014-01-13 16:35:00,
2014-01-13 11:40:00,55.0,42.2,30.10,SSW,211,1.0,6.0,62,0.00,,,0.00,Wunderground v.1.15,2014-01-13 16:40:00,
2014-01-13 11:45:00,55.0,41.8,30.10,South,186,1.0,6.0,61,0.00,,,0.00,Wunderground v.1.15,2014-01-13 16:45:00,
2014-01-13 11:50:00,54.9,41.3,30.10,South,187,1.0,1.0,60,0.00,,,0.00,Wunderground v.1.15,2014-01-13 16:50:00,
2014-01-13 11:55:00,54.9,41.7,30.09,WSW,243,1.0,6.0,61,0.00,,,0.00,Wunderground v.1.15,2014-01-13 16:55:00,
2014-01-13 12:00:00,54.6,40.6,30.10,WSW,240,1.0,6.0,59,0.00,,,0.00,Wunderground v.1.15,2014-01-13 17:00:00,
2014-01-13 12:05:00,54.1,40.1,30.09,SSW,195,4.0,6.0,59,0.00,,,0.00,Wunderground v.1.15,2014-01-13 17:05:00,
2014-01-13 12:10:00,54.4,40.8,30.10,SSE,167,4.0,4.0,60,0.00,,,0.00,Wunderground v.1.15,2014-01-13 17:10:00,
2014-01-13 12:15:00,54.9,41.3,30.09,SSW,194,2.0,6.0,60,0.00,,,0.00,Wunderground v.1.15,2014-01-13 17:15:00,
2014-01-13 12:20:00,55.1,41.0,30.09,SSW,194,2.0,6.0,59,0.00,,,0.00,Wunderground v.1.15,2014-01-13 17:20:00,
2014-01-13 12:25:00,55.1,41.5,30.08,South,182,2.0,6.0,60,0.00,,,0.00,Wunderground v.1.15,2014-01-13 17:25:00,
2014-01-13 12:30:00,55.3,41.2,30.08,WSW,257,2.0,6.0,59,0.00,,,0.00,Wunderground v.1.15,2014-01-13 17:30:00,
2014-01-13 12:35:00,55.5,40.5,30.06,South,180,2.0,6.0,57,0.00,,,0.00,Wunderground v.1.15,2014-01-13 17:35:00,
2014-01-13 12:40:00,55.7,40.2,30.06,South,180,2.0,6.0,56,0.00,,,0.00,Wunderground v.1.15,2014-01-13 17:40:00,
2014-01-13 12:45:00,56.3,41.7,30.06,South,178,2.0,6.0,58,0.00,,,0.00,Wunderground v.1.15,2014-01-13 17:45:00,
2014-01-13 12:50:00,57.1,41.5,30.06,South,185,1.0,1.0,56,0.00,,,0.00,Wunderground v.1.15,2014-01-13 17:50:00,
2014-01-13 12:55:00,57.5,41.4,30.06,South,180,2.0,-999.0,55,0.00,,,0.07,Wunderground v.1.15,2014-01-13 17:55:00,
2014-01-13 13:00:00,57.6,41.5,30.06,SSW,210,1.0,6.0,55,0.00,,,0.00,Wunderground v.1.15,2014-01-13 18:00:00,
2014-01-13 13:05:00,57.0,40.0,30.05,SSE,167,1.0,6.0,53,0.00,,,0.00,Wunderground v.1.15,2014-01-13 18:05:00,
2014-01-13 13:10:00,56.5,40.0,30.04,South,180,2.0,2.0,54,0.00,,,0.00,Wunderground v.1.15,2014-01-13 18:10:00,
2014-01-13 13:15:00,56.2,40.2,30.04,SSW,211,2.0,6.0,55,0.00,,,0.00,Wunderground v.1.15,2014-01-13 18:15:00,
2014-01-13 13:20:00,56.0,39.6,30.04,SSW,200,2.0,2.0,54,0.00,,,0.00,Wunderground v.1.15,2014-01-13 18:20:00,
2014-01-13 13:25:00,55.9,40.0,30.04,South,174,3.0,3.0,55,0.00,,,0.00,Wunderground v.1.15,2014-01-13 18:25:00,
2014-01-13 13:30:00,56.2,40.2,30.04,WSW,241,2.0,6.0,55,0.00,,,0.00,Wunderground v.1.15,2014-01-13 18:30:00,
2014-01-13 13:35:00,56.7,41.2,30.04,SSE,153,2.0,6.0,56,0.00,,,0.00,Wunderground v.1.15,2014-01-13 18:35:00,
2014-01-13 13:40:00,57.1,40.6,30.04,SSE,161,1.0,6.0,54,0.00,,,0.00,Wunderground v.1.15,2014-01-13 18:40:00,
2014-01-13 13:45:00,57.1,40.6,30.03,NNW,339,1.0,6.0,54,0.00,,,0.00,Wunderground v.1.15,2014-01-13 18:45:00,
2014-01-13 13:50:00,57.0,39.5,30.03,South,188,2.0,6.0,52,0.00,,,0.00,Wunderground v.1.15,2014-01-13 18:50:00,
2014-01-13 13:55:00,56.7,38.8,30.03,SSE,167,3.0,6.0,51,0.00,,,0.00,Wunderground v.1.15,2014-01-13 18:55:00,
2014-01-13 14:00:00,56.6,40.1,30.03,South,175,3.0,3.0,54,0.00,,,0.00,Wunderground v.1.15,2014-01-13 19:00:00,
2014-01-13 14:05:00,56.8,39.8,30.02,South,179,2.0,6.0,53,0.00,,,0.00,Wunderground v.1.15,2014-01-13 19:05:00,
2014-01-13 14:10:00,56.6,39.2,30.01,South,190,2.0,6.0,52,0.00,,,0.00,Wunderground v.1.15,2014-01-13 19:10:00,
2014-01-13 14:15:00,56.5,39.6,30.01,South,180,2.0,6.0,53,0.00,,,0.00,Wunderground v.1.15,2014-01-13 19:15:00,
2014-01-13 14:20:00,56.5,39.6,30.01,SSW,200,1.0,1.0,53,0.00,,,0.00,Wunderground v.1.15,2014-01-13 19:20:00,
2014-01-13 14:25:00,56.6,41.1,30.02,NW,309,1.0,6.0,56,0.00,,,0.00,Wunderground v.1.15,2014-01-13 19:25:00,
2014-01-13 14:30:00,56.6,41.1,30.02,ESE,121,1.0,6.0,56,0.00,,,0.00,Wunderground v.1.15,2014-01-13 19:30:00,
2014-01-13 14:35:00,56.6,41.1,30.02,South,188,1.0,6.0,56,0.00,,,0.00,Wunderground v.1.15,2014-01-13 19:35:00,
2014-01-13 14:40:00,56.5,41.4,30.03,SSW,202,0.0,6.0,57,0.00,,,0.00,Wunderground v.1.15,2014-01-13 19:40:00,
2014-01-13 14:45:00,56.4,41.3,30.03,WSW,238,0.0,6.0,57,0.00,,,0.00,Wunderground v.1.15,2014-01-13 19:45:00,
2014-01-13 14:50:00,56.2,41.2,30.03,South,178,0.0,6.0,57,0.00,,,0.00,Wunderground v.1.15,2014-01-13 19:50:00,
2014-01-13 14:55:00,55.9,40.4,30.02,WSW,239,0.0,6.0,56,0.00,,,0.00,Wunderground v.1.15,2014-01-13 19:55:00,
2014-01-13 15:00:00,55.6,39.7,30.02,SSW,209,1.0,6.0,55,0.00,,,0.00,Wunderground v.1.15,2014-01-13 20:00:00,
2014-01-13 15:05:00,55.5,40.0,30.02,SSW,212,1.0,6.0,56,0.00,,,0.00,Wunderground v.1.15,2014-01-13 20:05:00,
2014-01-13 15:10:00,55.5,40.0,30.02,South,185,1.0,6.0,56,0.00,,,0.00,Wunderground v.1.15,2014-01-13 20:10:00,
2014-01-13 15:15:00,55.5,40.0,30.02,West,281,0.0,6.0,56,0.00,,,0.00,Wunderground v.1.15,2014-01-13 20:15:00,
2014-01-13 15:20:00,55.5,40.5,30.02,WSW,242,0.0,6.0,57,0.00,,,0.00,Wunderground v.1.15,2014-01-13 20:20:00,
2014-01-13 15:25:00,55.4,41.3,30.02,WSW,242,0.0,6.0,59,0.00,,,0.00,Wunderground v.1.15,2014-01-13 20:25:00,
2014-01-13 15:30:00,55.3,39.4,30.01,South,188,0.0,6.0,55,0.00,,,0.00,Wunderground v.1.15,2014-01-13 20:30:00,
2014-01-13 15:35:00,55.3,39.4,30.01,SSW,203,1.0,-999.0,55,0.00,,,0.07,Wunderground v.1.15,2014-01-13 20:35:00,
2014-01-13 15:40:00,55.1,39.7,30.01,WSW,249,0.0,6.0,56,0.00,,,0.00,Wunderground v.1.15,2014-01-13 20:40:00,
2014-01-13 15:45:00,55.0,40.0,30.01,SW,215,1.0,6.0,57,0.00,,,0.00,Wunderground v.1.15,2014-01-13 20:45:00,
2014-01-13 15:50:00,54.9,40.4,30.01,SW,232,1.0,1.0,58,0.00,,,0.00,Wunderground v.1.15,2014-01-13 20:50:00,
2014-01-13 15:55:00,54.7,41.1,30.02,SW,223,0.0,6.0,60,0.00,,,0.00,Wunderground v.1.15,2014-01-13 20:55:00,
2014-01-13 16:00:00,54.6,40.1,30.02,SW,223,0.0,6.0,58,0.00,,,0.00,Wunderground v.1.15,2014-01-13 21:00:00,
2014-01-13 16:05:00,54.4,40.4,30.01,West,266,0.0,6.0,59,0.00,,,0.00,Wunderground v.1.15,2014-01-13 21:05:00,
2014-01-13 16:10:00,54.4,39.9,30.01,WSW,243,0.0,6.0,58,0.00,,,0.00,Wunderground v.1.15,2014-01-13 21:10:00,
2014-01-13 16:15:00,54.3,39.8,30.01,WSW,242,0.0,6.0,58,0.00,,,0.00,Wunderground v.1.15,2014-01-13 21:15:00,
2014-01-13 16:20:00,54.3,39.8,30.01,SSW,213,0.0,6.0,58,0.00,,,0.00,Wunderground v.1.15,2014-01-13 21:20:00,
2014-01-13 16:25:00,54.3,40.3,30.01,SW,229,0.0,6.0,59,0.00,,,0.00,Wunderground v.1.15,2014-01-13 21:25:00,
2014-01-13 16:30:00,54.3,40.7,30.02,SW,221,0.0,6.0,60,0.00,,,0.00,Wunderground v.1.15,2014-01-13 21:30:00,
2014-01-13 16:35:00,54.2,39.7,30.02,South,173,0.0,6.0,58,0.00,,,0.00,Wunderground v.1.15,2014-01-13 21:35:00,
2014-01-13 16:40:00,54.2,40.2,30.01,SSW,205,1.0,6.0,59,0.00,,,0.00,Wunderground v.1.15,2014-01-13 21:40:00,
2014-01-13 16:45:00,54.1,40.1,30.01,SW,225,1.0,6.0,59,0.00,,,0.00,Wunderground v.1.15,2014-01-13 21:45:00,
2014-01-13 16:50:00,54.1,40.1,30.00,South,190,1.0,1.0,59,0.00,,,0.00,Wunderground v.1.15,2014-01-13 21:50:00,
2014-01-13 16:55:00,54.1,40.1,30.01,SW,233,1.0,6.0,59,0.00,,,0.00,Wunderground v.1.15,2014-01-13 21:55:00,
2014-01-13 17:00:00,54.0,39.5,30.01,SSW,203,1.0,-999.0,58,0.00,,,0.07,Wunderground v.1.15,2014-01-13 22:00:00,
2014-01-13 17:05:00,53.9,39.9,30.01,South,170,0.0,6.0,59,0.00,,,0.00,Wunderground v.1.15,2014-01-13 22:05:00,
2014-01-13 17:10:00,53.7,40.1,30.00,South,186,0.0,0.0,60,0.00,,,0.00,Wunderground v.1.15,2014-01-13 22:10:00,
2014-01-13 17:15:00,53.5,39.9,30.00,South,186,0.0,0.0,60,0.00,,,0.00,Wunderground v.1.15,2014-01-13 22:15:00,
2014-01-13 17:20:00,53.3,40.2,30.01,SW,227,0.0,2.0,61,0.00,,,0.00,Wunderground v.1.15,2014-01-13 22:20:00,
2014-01-13 17:25:00,53.0,39.9,30.01,SW,224,0.0,2.0,61,0.00,,,0.00,Wunderground v.1.15,2014-01-13 22:25:00,
2014-01-13 17:30:00,52.8,40.1,30.00,SW,224,0.0,0.0,62,0.00,,,0.00,Wunderground v.1.15,2014-01-13 22:30:00,
2014-01-13 17:35:00,52.9,40.2,30.00,SW,225,0.0,-999.0,62,0.00,,,0.07,Wunderground v.1.15,2014-01-13 22:35:00,
2014-01-13 17:40:00,52.6,40.4,30.00,SW,224,0.0,0.0,63,0.00,,,0.00,Wunderground v.1.15,2014-01-13 22:40:00,
2014-01-13 17:45:00,52.4,40.2,30.00,SW,224,0.0,0.0,63,0.00,,,0.00,Wunderground v.1.15,2014-01-13 22:45:00,
2014-01-13 17:50:00,52.3,40.5,30.00,SW,224,0.0,0.0,64,0.00,,,0.00,Wunderground v.1.15,2014-01-13 22:50:00,
2014-01-13 17:55:00,52.1,40.3,30.00,SW,224,0.0,0.0,64,0.00,,,0.00,Wunderground v.1.15,2014-01-13 22:55:00,
2014-01-13 18:00:00,51.9,40.1,29.99,SW,224,0.0,0.0,64,0.00,,,0.00,Wunderground v.1.15,2014-01-13 23:00:00,
2014-01-13 18:05:00,51.8,40.8,30.00,SW,224,0.0,5.0,66,0.00,,,0.00,Wunderground v.1.15,2014-01-13 23:05:00,
2014-01-13 18:10:00,51.7,40.7,30.00,SW,224,0.0,5.0,66,0.00,,,0.00,Wunderground v.1.15,2014-01-13 23:10:00,
2014-01-13 18:15:00,51.5,40.9,30.00,SW,224,0.0,5.0,67,0.00,,,0.00,Wunderground v.1.15,2014-01-13 23:15:00,
2014-01-13 18:20:00,51.3,41.1,30.00,SW,224,0.0,5.0,68,0.00,,,0.00,Wunderground v.1.15,2014-01-13 23:20:00,
2014-01-13 18:25:00,51.2,41.0,30.00,SW,224,0.0,5.0,68,0.00,,,0.00,Wunderground v.1.15,2014-01-13 23:25:00,
2014-01-13 18:30:00,51.0,41.2,30.00,SW,224,0.0,5.0,69,0.00,,,0.00,Wunderground v.1.15,2014-01-13 23:30:00,
2014-01-13 18:35:00,50.9,41.5,29.99,SW,224,0.0,5.0,70,0.00,,,0.00,Wunderground v.1.15,2014-01-13 23:35:00,
2014-01-13 18:40:00,50.8,41.4,29.99,SW,224,0.0,5.0,70,0.00,,,0.00,Wunderground v.1.15,2014-01-13 23:40:00,
2014-01-13 18:45:00,50.7,41.3,30.00,SW,224,0.0,5.0,70,0.00,,,0.00,Wunderground v.1.15,2014-01-13 23:45:00,
2014-01-13 18:50:00,50.6,41.5,30.00,SW,224,0.0,5.0,71,0.00,,,0.00,Wunderground v.1.15,2014-01-13 23:50:00,
2014-01-13 18:55:00,50.4,41.0,29.99,SW,224,0.0,5.0,70,0.00,,,0.00,Wunderground v.1.15,2014-01-13 23:55:00,
2014-01-13 19:00:00,50.3,40.9,29.99,SW,224,0.0,5.0,70,0.00,,,0.00,Wunderground v.1.15,2014-01-14 00:00:00,
2014-01-13 19:05:00,50.3,40.9,30.00,SW,224,0.0,5.0,70,0.00,,,0.00,Wunderground v.1.15,2014-01-14 00:05:00,
2014-01-13 19:10:00,50.2,41.2,30.00,SW,224,0.0,5.0,71,0.00,,,0.00,Wunderground v.1.15,2014-01-14 00:10:00,
2014-01-13 19:15:00,50.0,40.6,30.00,SW,224,0.0,5.0,70,0.00,,,0.00,Wunderground v.1.15,2014-01-14 00:15:00,
2014-01-13 19:20:00,49.9,40.9,30.00,SW,224,0.0,5.0,71,0.00,,,0.00,Wunderground v.1.15,2014-01-14 00:20:00,
2014-01-13 19:25:00,49.8,40.8,29.99,SW,224,0.0,5.0,71,0.00,,,0.00,Wunderground v.1.15,2014-01-14 00:25:00,
2014-01-13 19:30:00,49.7,40.7,29.98,SW,224,0.0,5.0,71,0.00,,,0.00,Wunderground v.1.15,2014-01-14 00:30:00,
2014-01-13 19:35:00,49.7,41.0,29.99,SW,224,0.0,5.0,72,0.00,,,0.00,Wunderground v.1.15,2014-01-14 00:35:00,
2014-01-13 19:40:00,49.6,40.9,29.98,SW,224,0.0,5.0,72,0.00,,,0.00,Wunderground v.1.15,2014-01-14 00:40:00,
2014-01-13 19:45:00,49.5,40.8,29.98,SW,224,0.0,5.0,72,0.00,,,0.00,Wunderground v.1.15,2014-01-14 00:45:00,
2014-01-13 19:50:00,49.5,40.8,29.99,SW,224,0.0,5.0,72,0.00,,,0.00,Wunderground v.1.15,2014-01-14 00:50:00,
2014-01-13 19:55:00,49.4,40.7,29.99,SW,224,0.0,5.0,72,0.00,,,0.00,Wunderground v.1.15,2014-01-14 00:55:00,
2014-01-13 20:00:00,49.5,41.9,30.00,SW,224,0.0,5.0,75,0.00,,,0.00,Wunderground v.1.15,2014-01-14 01:00:00,
2014-01-13 20:05:00,49.4,41.8,29.99,SW,224,0.0,5.0,75,0.00,,,0.00,Wunderground v.1.15,2014-01-14 01:05:00,
2014-01-13 20:10:00,49.3,41.7,29.98,SW,224,0.0,5.0,75,0.00,,,0.00,Wunderground v.1.15,2014-01-14 01:10:00,
2014-01-13 20:15:00,49.4,41.8,29.98,N/A,-737280,0.0,-999.0,75,0.00,,,0.07,Wunderground v.1.15,2014-01-14 01:15:00,
2014-01-13 20:20:00,49.3,41.4,29.98,SW,224,0.0,5.0,74,0.00,,,0.00,Wunderground v.1.15,2014-01-14 01:20:00,
2014-01-13 20:25:00,49.3,41.7,29.98,SW,224,0.0,5.0,75,0.00,,,0.00,Wunderground v.1.15,2014-01-14 01:25:00,
2014-01-13 20:30:00,49.4,42.1,29.98,SW,224,0.0,5.0,76,0.00,,,0.00,Wunderground v.1.15,2014-01-14 01:30:00,
2014-01-13 20:35:00,49.4,42.1,29.98,SW,224,0.0,5.0,76,0.00,,,0.00,Wunderground v.1.15,2014-01-14 01:35:00,
2014-01-13 20:40:00,49.4,42.5,29.98,SW,224,0.0,5.0,77,0.00,,,0.00,Wunderground v.1.15,2014-01-14 01:40:00,
2014-01-13 20:45:00,49.0,42.4,30.00,N/A,-737280,0.0,-999.0,78,0.00,,,0.07,Wunderground v.1.15,2014-01-14 01:45:00,
2014-01-13 20:50:00,49.2,42.3,29.99,SW,224,0.0,5.0,77,0.00,,,0.00,Wunderground v.1.15,2014-01-14 01:50:00,
2014-01-13 20:55:00,49.1,42.5,29.99,SW,224,0.0,5.0,78,0.00,,,0.00,Wunderground v.1.15,2014-01-14 01:55:00,
2014-01-13 21:00:00,49.0,42.4,30.00,SW,224,0.0,5.0,78,0.00,,,0.00,Wunderground v.1.15,2014-01-14 02:00:00,
2014-01-13 21:05:00,48.9,42.7,30.00,SW,224,0.0,5.0,79,0.00,,,0.00,Wunderground v.1.15,2014-01-14 02:05:00,
2014-01-13 21:10:00,48.8,43.2,30.00,SW,224,0.0,5.0,81,0.00,,,0.00,Wunderground v.1.15,2014-01-14 02:10:00,
2014-01-13 21:15:00,48.5,43.3,30.00,SW,224,0.0,5.0,82,0.00,,,0.01,Wunderground v.1.15,2014-01-14 02:15:00,
2014-01-13 21:20:00,48.3,42.7,30.00,SW,224,0.0,5.0,81,0.00,,,0.01,Wunderground v.1.15,2014-01-14 02:20:00,
2014-01-13 21:25:00,48.3,43.7,30.00,SW,224,0.0,5.0,84,0.00,,,0.01,Wunderground v.1.15,2014-01-14 02:25:00,
2014-01-13 21:30:00,48.2,43.9,30.00,SW,224,0.0,5.0,85,0.00,,,0.01,Wunderground v.1.15,2014-01-14 02:30:00,
2014-01-13 21:35:00,48.1,43.2,30.00,WSW,244,0.0,5.0,83,0.00,,,0.01,Wunderground v.1.15,2014-01-14 02:35:00,
2014-01-13 21:40:00,48.2,43.0,30.00,WSW,244,1.0,1.0,82,0.00,,,0.01,Wunderground v.1.15,2014-01-14 02:40:00,
2014-01-13 21:45:00,48.2,43.0,29.99,WSW,244,0.0,5.0,82,0.00,,,0.01,Wunderground v.1.15,2014-01-14 02:45:00,
2014-01-13 21:50:00,48.2,43.3,29.99,WSW,244,0.0,5.0,83,0.00,,,0.02,Wunderground v.1.15,2014-01-14 02:50:00,
2014-01-13 21:55:00,48.1,43.2,29.99,WSW,244,0.0,5.0,83,0.00,,,0.02,Wunderground v.1.15,2014-01-14 02:55:00,
2014-01-13 22:00:00,48.0,43.1,29.99,WSW,244,0.0,5.0,83,0.00,,,0.02,Wunderground v.1.15,2014-01-14 03:00:00,
2014-01-13 22:05:00,47.9,43.3,29.98,WSW,244,0.0,5.0,84,0.00,,,0.02,Wunderground v.1.15,2014-01-14 03:05:00,
2014-01-13 22:10:00,47.8,43.2,29.98,WSW,244,0.0,5.0,84,0.00,,,0.03,Wunderground v.1.15,2014-01-14 03:10:00,
2014-01-13 22:15:00,47.4,43.4,29.97,WSW,248,0.0,-999.0,86,0.03,,,0.07,Wunderground v.1.15,2014-01-14 03:15:00,
2014-01-13 22:20:00,47.6,43.3,29.98,WSW,244,0.0,5.0,85,0.00,,,0.03,Wunderground v.1.15,2014-01-14 03:20:00,
2014-01-13 22:25:00,47.5,43.2,29.98,WSW,244,0.0,5.0,85,0.00,,,0.03,Wunderground v.1.15,2014-01-14 03:25:00,
2014-01-13 22:30:00,47.4,43.4,29.97,WSW,244,0.0,5.0,86,0.00,,,0.04,Wunderground v.1.15,2014-01-14 03:30:00,
2014-01-13 22:35:00,47.4,43.4,29.97,WSW,248,0.0,-999.0,86,0.03,,,0.07,Wunderground v.1.15,2014-01-14 03:35:00,
2014-01-13 22:40:00,47.4,43.4,29.97,WSW,248,0.0,-999.0,86,0.03,,,0.07,Wunderground v.1.15,2014-01-14 03:40:00,
2014-01-13 22:45:00,46.8,43.4,29.98,WSW,248,1.0,-999.0,88,0.03,,,0.07,Wunderground v.1.15,2014-01-14 03:45:00,
2014-01-13 22:50:00,46.8,43.4,29.98,WSW,248,1.0,-999.0,88,0.03,,,0.07,Wunderground v.1.15,2014-01-14 03:50:00,
2014-01-13 22:55:00,46.8,43.4,29.98,WSW,248,1.0,-999.0,88,0.03,,,0.07,Wunderground v.1.15,2014-01-14 03:55:00,
2014-01-13 23:00:00,46.8,43.4,29.98,WSW,248,1.0,-999.0,88,0.03,,,0.07,Wunderground v.1.15,2014-01-14 04:00:00,
2014-01-13 23:05:00,46.8,43.4,29.98,WSW,248,1.0,-999.0,88,0.03,,,0.07,Wunderground v.1.15,2014-01-14 04:05:00,
2014-01-13 23:10:00,46.8,43.4,29.98,WSW,248,1.0,-999.0,88,0.03,,,0.07,Wunderground v.1.15,2014-01-14 04:10:00,
2014-01-13 23:15:00,46.6,43.5,29.97,WSW,248,2.0,-999.0,89,0.03,,,0.07,Wunderground v.1.15,2014-01-14 04:15:00,
2014-01-13 23:20:00,46.6,43.5,29.97,WSW,248,2.0,-999.0,89,0.03,,,0.07,Wunderground v.1.15,2014-01-14 04:20:00,
2014-01-13 23:25:00,46.6,43.5,29.97,WSW,248,2.0,-999.0,89,0.03,,,0.07,Wunderground v.1.15,2014-01-14 04:25:00,
2014-01-13 23:30:00,46.6,43.5,29.97,WSW,248,2.0,-999.0,89,0.03,,,0.07,Wunderground v.1.15,2014-01-14 04:30:00,
2014-01-13 23:35:00,46.6,43.5,29.97,WSW,248,2.0,-999.0,89,0.03,,,0.07,Wunderground v.1.15,2014-01-14 04:35:00,
2014-01-13 23:40:00,46.6,43.5,29.97,WSW,248,2.0,-999.0,89,0.03,,,0.07,Wunderground v.1.15,2014-01-14 04:40:00,
2014-01-13 23:45:00,46.7,43.9,29.95,WSW,248,1.0,-999.0,90,0.02,,,0.07,Wunderground v.1.15,2014-01-14 04:45:00,
2014-01-13 23:50:00,46.7,43.9,29.95,WSW,248,1.0,-999.0,90,0.02,,,0.07,Wunderground v.1.15,2014-01-14 04:50:00,
2014-01-13 23:55:00,46.7,43.9,29.95,WSW,248,1.0,-999.0,90,0.02,,,0.07,Wunderground v.1.15,2014-01-14 04:55:00,